Flag for U.S.A. Weather past 2 weeks in Newport News, Virginia, U.S.A.

Now
76 °F

Clear.


Feels Like: 77 °F
Forecast: 73 / 87 °F
Wind: 9 mph from Southwest

Location: Newport News / Williamsburg International Airport

Current Time: May 28, 2015 at 6:24:49 AM

Latest Report: May 28, 2015 at 5:54 AM


Visibility: 10 mi

Pressure: 30.19 "Hg

Humidity: 74%

Dew point: 67 °F

Location of Newport NewsLocation

Historic Weather in Newport News — Graph

°F

Newport News temperature yesterday

Maximum temperature yesterday: 92 °F (at 3:54 PM)
Minimum temperature yesterday: 75 °F (at 3:54 AM)
Average temperature yesterday: 82 °F

Past Weeks' High & Low Weather Summary

 TemperatureHumidityPressure
High92 °F (May 18, 2:54 PM)85% (May 17, 8:54 PM)30.46 "Hg (May 17, 8:54 PM)
Low52 °F (May 15, 2:54 AM)32% (May 22, 4:54 PM)29.82 "Hg (May 21, 3:54 PM)
Average73 °F60%30.18 "Hg
* Reported May 13 4:54 AM — May 28 4:54 AM, Newport News, Weather by CustomWeather, © 2015

Note: Actual official high and low records may vary slightly from our data, if they occured in-between our weather recording intervals... More about our weather records

Advertising

Newport News weather history for previous 24 hours

 ConditionsComfort  
Time TempWeatherWind HumidityBarometerVisibility
4:54 AM
Thu, May 28
76 °FClear.10 mph74%30.17 "Hg10 mi
3:54 AM76 °FClear.10 mph74%30.17 "Hg10 mi
2:54 AM77 °FClear.9 mph71%30.19 "Hg10 mi
1:54 AM77 °FClear.13 mph71%30.19 "Hg10 mi
12:54 AM78 °FClear.13 mph69%30.19 "Hg10 mi
11:54 PM
Wed, May 27
79 °FClear.9 mph67%30.19 "Hg10 mi
10:54 PM79 °FClear.15 mph67%30.20 "Hg10 mi
9:54 PM80 °FLight rain. Partly cloudy.12 mph67%30.20 "Hg10 mi
8:54 PM83 °FBroken clouds.12 mph61%30.19 "Hg10 mi
7:54 PM84 °FSunny.14 mph59%30.14 "Hg10 mi
6:54 PM87 °FPassing clouds.15 mph55%30.14 "Hg10 mi
5:54 PM89 °FPassing clouds.16 mph53%30.13 "Hg10 mi
4:54 PM91 °FScattered clouds.15 mph49%30.14 "Hg10 mi
3:54 PM92 °FPassing clouds.12 mph47%30.15 "Hg10 mi
2:54 PM91 °FPassing clouds.10 mph49%30.17 "Hg10 mi
1:54 PM90 °FSunny.16 mph50%30.19 "Hg10 mi
12:54 PM89 °FSunny.15 mph52%30.21 "Hg10 mi
11:54 AM87 °FPassing clouds.14 mph55%30.22 "Hg10 mi
10:54 AM86 °FSunny.15 mph57%30.22 "Hg10 mi
9:54 AM84 °FPartly sunny.15 mph63%30.23 "Hg10 mi
9:01 AM81 °FScattered clouds.16 mph67%30.24 "Hg10 mi
8:02 AM78 °FPartly sunny.9 mph71%30.23 "Hg10 mi
7:54 AM78 °FPassing clouds.12 mph71%30.22 "Hg10 mi
6:54 AM76 °FSunny.10 mph74%30.21 "Hg10 mi
Weather by CustomWeather, © 2015

See weather overviewHow to use our weather pages